{"data":{"norad_id":60522,"intl_designator":"2024-149BG","name":"CONNECTA IOT-2","alt_names":[],"object_type":"PAYLOAD","status":"ACTIVE","operator":null,"country":"TURK","launch_date":"2024-08-16","launch_site_code":"AFWTR","launch_vehicle":null,"mission":null,"orbit_class":"UNKNOWN","rcs_meters":null,"size_class":null,"mass_kg":null,"dimensions":null,"purposes":[],"wikipedia_slug":null,"has_3d_model":false,"image_url":null,"decayed_at":null,"tle_current":{"epoch":"2026-05-25T04:44:24.643680Z","epoch_age_seconds":57995,"freshness":"FRESH","line1":"1 60522U 24149BG  26145.19750745  .00004251  00000+0  17965-3 0  9993","line2":"2 60522  97.3838 223.6952 0007668  55.8972 304.2992 15.23745766 98391","mean_motion":15.23745766,"eccentricity":0.0007668,"inclination_deg":97.3838,"raan_deg":223.6952,"arg_perigee_deg":55.8972,"mean_anomaly_deg":304.2992,"bstar":0.00017965,"rev_number":9839,"period_min":94.503954145852,"perigee_km":489.28426068925,"apogee_km":499.82421997543,"semimajor_km":6872.6912403323,"source":"CELESTRAK","updated_at":"2026-05-25T13:38:02.124125Z"}}}